Overview Statistics Trail Chart Weather Telemetry Raw packets
 

This is the latest recevied weather packets stored in our database for station/object WX0ABE-13. If no packets are shown the sender has not sent any weather packets the latest 10 day(s).

<< 34 35 36 37 38 39 40 >>
Time Temp. Humidity Pressure Rain* Wind** Luminosity Snow
1788117889 30° C 37% 1014.8 hPa 0 mm - 396 W/m² -
1788117584 30.56° C 37% 1014.8 hPa 0 mm - 353 W/m² -
1788117284 30° C 36% 1014.9 hPa 0 mm - 527 W/m² -
1788116980 30° C 38% 1014.8 hPa 0 mm - 425 W/m² -
1788116675 30° C 36% 1014.7 hPa 0 mm - 323 W/m² -
1788116374 30° C 36% 1014.8 hPa 0 mm - 260 W/m² -
1788116069 30.56° C 34% 1014.8 hPa 0 mm - 271 W/m² -
1788115765 30.56° C 34% 1015.2 hPa 0 mm - 483 W/m² -
1788115464 30° C 36% 1014.9 hPa 0 mm - 586 W/m² -
1788115163 30° C 39% 1014.9 hPa 0 mm - 765 W/m² -
1788114858 29.44° C 40% 1014.9 hPa 0 mm - 417 W/m² -
1788114554 28.89° C 43% 1015.3 hPa 0 mm - 313 W/m² -
1788114249 29.44° C 40% 1015.2 hPa 0 mm - 581 W/m² -
1788113945 28.89° C 44% 1015.4 hPa 0 mm - 468 W/m² -
1788113641 28.89° C 45% 1015.4 hPa 0 mm - 521 W/m² -
1788113335 28.33° C 49% 1015.4 hPa 0 mm - 458 W/m² -
1788113034 30° C 46% 1015.5 hPa 0 mm - 336 W/m² -
1788112734 28.89° C 40% 1015.5 hPa 0 mm - 410 W/m² -
1788112429 27.78° C 48% 1015.5 hPa 0 mm - 497 W/m² -
1788112129 27.22° C 54% 1015.8 hPa 0 mm - 329 W/m² -
1788111824 26.67° C 55% 1015.8 hPa 0 mm - 339 W/m² -
1788111519 26.67° C 56% 1015.8 hPa 0 mm - 306 W/m² -
1788111215 26.67° C 56% 1015.9 hPa 0 mm - 676 W/m² -
1788110911 26.67° C 56% 1016.3 hPa 0 mm - 530 W/m² -
1788110607 26.11° C 56% 1016.2 hPa 0 mm - 368 W/m² -

* Rain latest hour (hover to see other rain measurements)
** Current wind speed in m/s (hover to see current wind gust speed)